Andraeviertel, Austria

8:28 AM CEST on October 19, 2017 (GMT +0200)
Andraeviertel

Weather History for 11150 - May, 2013

Change the Weather History Date:

Monday, May 20, 2013

  Actual Average Record
Temperature  
Mean Temperature 56 °F -  
Max Temperature 65 °F 68 °F - ()
Min Temperature 48 °F 50 °F - ()
Degree Days  
Heating Degree Days 8    
Growing Degree Days 6 (Base 50)    
Moisture  
Dew Point 46 °F    
Average Humidity 77    
Maximum Humidity 100    
Minimum Humidity 37    
Precipitation  
Precipitation 0.31 in 0.19 in - ()
Sea Level Pressure  
Sea Level Pressure 29.93 in    
Wind  
Wind Speed 6 mph ()    
Max Wind Speed 15 mph    
Max Gust Speed 28 mph    
Visibility 7.3 miles    
Events Rain , Hail , Thunderstorm    
T = Trace of Precipitation, MM = Missing Value Source: Averaged Metar Reports

Daily Weather History Graph

Daily Weather History Graph

Search for Another Location

Airport or City:

Trip Planner

Search our weather history database for the weather conditions in past years. The results will help you decide how hot, cold, wet, or windy it might be!

Date:

Astronomy

May. 20, 2013 Rise Set
Actual Time 5:24 AM CEST 8:45 PM CEST
Civil Twilight 4:46 AM CEST 9:23 PM CEST
Nautical Twilight 3:56 AM CEST 10:13 PM CEST
Astronomical Twilight 2:52 AM CEST 11:18 PM CEST
Moon 3:13 PM CEST (5/20) 2:33 AM CEST (5/20)
Length of Visible Light 16h 37m
Length of Day
15h 21m
Waxing Gibbous, 72% of the Moon is Illuminated
May 20
Waxing Gibbous
May 25
Full
May 31
Last Quarter
Jun 8
New
Jun 16
First Quarter

Hourly Weather History & Observations

Time (CEST) Temp. Dew Point Humidity Pressure Visibility Wind Dir Wind Speed Gust Speed Precip Events Conditions
12:20 AM 51.8 °F 44.6 °F 76% 29.89 in 6.2 mi Variable 2.3 mph - N/A   Overcast
12:50 AM 51.8 °F 46.4 °F 82% 29.92 in 6.2 mi Variable 2.3 mph - N/A   Overcast
1:20 AM 50.0 °F 48.2 °F 94% 29.92 in 6.2 mi SE 3.5 mph - N/A   Overcast
1:50 AM 50.0 °F 46.4 °F 87% 29.92 in 6.2 mi SSE 3.5 mph - N/A   Mostly Cloudy
2:00 AM 50 °F 46 °F 83% 29.92 in 11 mi SSE 4.5 mph - -  
2:20 AM 50.0 °F 48.2 °F 94% 29.92 in 6.2 mi South 4.6 mph - N/A Rain Light Rain Showers
2:50 AM 50.0 °F 48.2 °F 94% 29.92 in 6.2 mi South 5.8 mph - N/A   Overcast
3:20 AM 50.0 °F 46.4 °F 87% 29.92 in 6.2 mi SSE 3.5 mph - N/A   Mostly Cloudy
3:50 AM 50.0 °F 46.4 °F 87% 29.92 in 6.2 mi South 5.8 mph - N/A   Mostly Cloudy
4:20 AM 50.0 °F 46.4 °F 87% 29.92 in 6.2 mi SSE 8.1 mph - N/A   Mostly Cloudy
4:50 AM 50.0 °F 46.4 °F 87% 29.92 in 6.2 mi SSE 8.1 mph - N/A   Mostly Cloudy
5:00 AM 50 °F 46 °F 83% 29.93 in 16 mi SSE 8.9 mph - -   Partly Cloudy
5:20 AM 50.0 °F 46.4 °F 87% 29.92 in 6.2 mi SSE 5.8 mph - N/A   Mostly Cloudy
5:50 AM 50.0 °F 46.4 °F 87% 29.92 in 6.2 mi SE 11.5 mph - N/A   Mostly Cloudy
6:20 AM 48.2 °F 44.6 °F 87% 29.95 in 6.2 mi SE 11.5 mph - N/A   Mostly Cloudy
6:50 AM 48.2 °F 42.8 °F 82% 29.95 in 6.2 mi SE 10.4 mph - N/A   Mostly Cloudy
7:20 AM 48.2 °F 42.8 °F 82% 29.95 in 6.2 mi SE 11.5 mph - N/A   Mostly Cloudy
7:50 AM 48.2 °F 42.8 °F 82% 29.95 in 6.2 mi SE 11.5 mph - N/A   Mostly Cloudy
8:00 AM 49 °F 43 °F 72% 29.98 in 16 mi SE 11.2 mph - -   Scattered Clouds
8:20 AM 50.0 °F 42.8 °F 76% 29.95 in 6.2 mi SSE 9.2 mph - N/A   Mostly Cloudy
8:50 AM 50.0 °F 42.8 °F 76% 29.95 in 6.2 mi SE 11.5 mph - N/A   Mostly Cloudy
9:20 AM 51.8 °F 44.6 °F 76% 29.95 in 6.2 mi SE 9.2 mph - N/A   Mostly Cloudy
9:50 AM 51.8 °F 42.8 °F 71% 29.95 in 6.2 mi SE 10.4 mph - N/A   Mostly Cloudy
10:20 AM 53.6 °F 42.8 °F 67% 29.95 in 6.2 mi SSE 10.4 mph - N/A   Mostly Cloudy
10:50 AM 55.4 °F 44.6 °F 67% 29.95 in 6.2 mi SSE 11.5 mph - N/A   Mostly Cloudy
11:00 AM 55 °F 45 °F 59% 29.96 in 16 mi SSE 11.2 mph - -   Scattered Clouds
11:20 AM 57.2 °F 44.6 °F 63% 29.95 in 6.2 mi SSE 9.2 mph - N/A   Partly Cloudy
11:50 AM 59.0 °F 41.0 °F 51% 29.95 in 6.2 mi Variable 5.8 mph - N/A   Partly Cloudy
12:20 PM 60.8 °F 44.6 °F 55% 29.92 in 6.2 mi Variable 3.5 mph - N/A   Scattered Clouds
12:50 PM 60.8 °F 44.6 °F 55% 29.92 in 6.2 mi Variable 3.5 mph - N/A   Partly Cloudy
1:20 PM 62.6 °F 44.6 °F 52% 29.92 in 6.2 mi Variable 4.6 mph - N/A   Scattered Clouds
1:50 PM 64.4 °F 44.6 °F 49% 29.89 in 6.2 mi Variable 5.8 mph - N/A   Scattered Clouds
2:00 PM 65 °F 45 °F 37% 29.87 in 16 mi 6.7 mph - -   Partly Cloudy
2:20 PM 62.6 °F 42.8 °F 48% 29.89 in 6.2 mi Variable 6.9 mph - N/A   Scattered Clouds
2:50 PM 62.6 °F 42.8 °F 48% 29.86 in 6.2 mi NNE 9.2 mph - N/A   Mostly Cloudy
3:20 PM 57.2 °F 46.4 °F 67% 29.89 in 6.2 mi West 15.0 mph 27.6 mph N/A Hail , Thunderstorm Heavy Thunderstorms with Hail
3:50 PM 51.8 °F 46.4 °F 82% 29.92 in 6.2 mi NW 5.8 mph - N/A Thunderstorm Mostly Cloudy
4:20 PM 57.2 °F 48.2 °F 72% 29.89 in 6.2 mi SSW 5.8 mph - N/A   Partly Cloudy
4:50 PM 60.8 °F 48.2 °F 63% 29.89 in 6.2 mi WSW 5.8 mph - N/A   Mostly Cloudy
5:00 PM 60 °F 48 °F 55% 29.89 in 16 mi WSW 6.7 mph - -   Scattered Clouds
5:20 PM 60.8 °F 48.2 °F 63% 29.89 in 6.2 mi SSW 3.5 mph - N/A   Mostly Cloudy
5:50 PM 59.0 °F 50.0 °F 72% 29.89 in 6.2 mi Variable 2.3 mph - N/A   Mostly Cloudy
6:20 PM 59.0 °F 50.0 °F 72% 29.89 in 6.2 mi Variable 1.2 mph - N/A Thunderstorm Mostly Cloudy
6:50 PM 51.8 °F 46.4 °F 82% 29.92 in 6.2 mi NNW 12.7 mph - N/A Rain , Thunderstorm Thunderstorms and Rain
7:20 PM 51.8 °F 48.2 °F 88% 29.95 in 6.2 mi WNW 10.4 mph - N/A Rain , Thunderstorm Light Thunderstorms and Rain
7:50 PM 51.8 °F 48.2 °F 88% 29.95 in 6.2 mi Variable 2.3 mph - N/A Rain Light Rain Showers
8:00 PM 51 °F 48 °F 84% 29.96 in 16 mi 2.2 mph - - Rain Light Rain
8:20 PM 51.8 °F 46.4 °F 82% 29.95 in 6.2 mi West 3.5 mph - N/A Rain Light Rain Showers
8:50 PM 50.0 °F 46.4 °F 87% 29.95 in 6.2 mi Variable 2.3 mph - N/A   Mostly Cloudy
9:20 PM 50.0 °F 48.2 °F 94% 29.95 in 6.2 mi ESE 4.6 mph - N/A   Mostly Cloudy
9:50 PM 50.0 °F 50.0 °F 100% 29.98 in 6.2 mi WSW 4.6 mph - N/A Rain Light Rain Showers
10:20 PM 50.0 °F 50.0 °F 100% 29.98 in 6.2 mi SSW 8.1 mph - N/A Rain Rain Showers
10:50 PM 50.0 °F 48.2 °F 94% 29.98 in 5.6 mi SSE 5.8 mph - N/A Rain Rain
11:00 PM 50 °F 49 °F 94% 30.01 in 6 mi SSE 6.7 mph - - Rain Rain
11:20 PM 50.0 °F 50.0 °F 100% 29.98 in 6.2 mi SSE 6.9 mph - N/A Rain Rain
11:50 PM 50.0 °F 50.0 °F 100% 29.98 in 6.2 mi SSE 9.2 mph - N/A   Light Drizzle